OBJECT B, 44311

Orbit data source: Space-Track

You're viewing an Uncataloged Satellite

Recently launched and/or uncataloged satellites may have evolving metadata. Metadata may include but not limited to: Owner, Maufacturer, Bus, Motor, and Mission.

OBJECT B, 44311 is a Chinese satellite in LEO that was launched on Wed, 05 Jun 2019 UTC via a CHANG ZHENG 11 launch vehicle from the Yellow Sea Launch Area, China (YSLA). Unknown objects in Earth's orbit typically refer to objects detected orbiting the Earth but have not yet been identified or cataloged. These objects could be anything from previously untracked satellites, spent rocket stages, debris from satellite collisions, or even natural meteoroids temporarily captured by Earth's gravity.

Loading next visibility...
Identifier
44311, 2019-032B
Orbit
LEO
Last TLE update
8 hours ago
Origin
Flag of CNTZJ/GUOG (CN / PRC)
Manufacturer
GUOG?
Mission
Operational Commercial Communications
Bus & Motor
CUBESAT 6U?, Unknown motor
Mass
8 kg wet, 8 kg dry
Launch date (UTC)
2019-06-05 (6 years ago)
Launch vehicle
CHANG ZHENG 11
Launch site
Yellow Sea Launch Area, China (YSLA)
Object type
Unknown
Shape & HBR
Box, 0.3 m
Radar Cross Section
0.080 m², Medium (>0.1 m² and < 1m²)

Expand to show TLE details & history

TLE from 8 hours ago
0 OBJECT B
1 44311U 19032B   25184.19893393  .00006283  00000-0  30696-3 0  9999
2 44311  44.9760 103.4517 0033437 126.8811 233.5140 15.18629542334532
Epoch: 2025-07-03T04:46Z
TLE epoch observation values (Epoch: 2025-07-03T04:46:27.891Z)
Latitude
-0.00007°
Longitude
110.3663°
Altitude
523.721 km
Speed
7.595 km/s
True Right ascension
06h 53m 48s
True Declination
0° 00' 00"
Sunlit
Object was in daylight at epoch
Visualization orbit readout
Latitude
27.91252°
Longitude
-103.36333°
Altitude
487.751 km
Speed
7.638 km/s
Apparent Right ascension
15h 03m 30s
Apparent Declination
-5° 06' 13"
Sunlit
Object is in full shadow
Visualization observer readout
Local Sidereal Time
01:03:15
Azimuth
314.179° NW
Elevation
-45.909°
Doppler factor
1
Orbital elements
Apogee altitude
534.626 km
Perigee altitude
488.551 km
Semi-major axis
6,889.726 km
Eccentricity
0.00334
Inclination
44.976°
RAAN
103.4517°
Arg. of periapsis
126.8811°
True anomaly
Unknown
Mean anomaly
233.514°
Eccentric anomaly
Unknown
Mean motion
3.79525 °/min
Orbital period
94.86 mins
BSTAR
0.00030696
Loading maneuver chart data...
Loading SW <> Apogee altitude chart data...
Loading historical data...
Loading historical data...
Loading historical data...
Loading historical data...
Loading historical data...
Loading historical data...
Loading historical data...

OBJECT B Visibility forecast

Observer location: undefined°, undefined°

Span
Click to sort rows by Start time (UTC) header in descending order
Start Az.
Max El. time (UTC)
Max El. Az.
Max El.
End time (UTC)
End Az.
6 mins2025-07-03 22:22:27.103Z238.389° WSW2025-07-03 22:25:27.103Z92.641° ESE42.463°2025-07-03 22:28:27.103Z68.556° E
5 mins2025-07-04 00:02:27.103Z291.783° WNW2025-07-04 00:04:27.103Z345.19° N33.023°2025-07-04 00:07:27.103Z58.874° ENE
5 mins2025-07-04 01:42:27.103Z310.054° NW2025-07-04 01:44:27.103Z11.523° NNE34.615°2025-07-04 01:47:27.103Z80.978° E
6 mins2025-07-04 03:21:27.103Z284.921° WNW2025-07-04 03:23:27.103Z247.901° W39.49°2025-07-04 03:27:27.103Z128.059° SE
|